Weather History for KLXT - September, 2013

Change the Weather History Date:

Monday, September 16, 2013

  Actual Average (KMKC) Record (KMKC)
Temperature  
Mean Temperature 60 °F -  
Max Temperature 62 °F 77 °F 95 °F (1997)
Min Temperature 59 °F 57 °F 50 °F (1999)
Degree Days  
Heating Degree Days 4    
Growing Degree Days 10 (Base 50)    
Moisture  
Dew Point 57 °F    
Average Humidity 89    
Maximum Humidity 94    
Minimum Humidity 81    
Precipitation  
Precipitation 0.27 in - - ()
Sea Level Pressure  
Sea Level Pressure 30.21 in    
Wind  
Wind Speed 11 mph (ENE)    
Max Wind Speed 17 mph    
Max Gust Speed 24 mph    
Visibility 8 miles    
Events Rain , Thunderstorm    
Averages and records for this station are not official NWS values.
T = Trace of Precipitation, MM = Missing Value Source: NWS Daily Summary

Daily Weather History Graph

Daily Weather History Graph

Search for Another Location

Airport or City:

Trip Planner

Search our weather history database for the weather conditions in past years. The results will help you decide how hot, cold, wet, or windy it might be!

Date:

Astronomy

Sep. 16, 2013 Rise Set
Actual Time 7:00 AM CDT 7:23 PM CDT
Civil Twilight 6:33 AM CDT 7:50 PM CDT
Nautical Twilight 6:01 AM CDT 8:21 PM CDT
Astronomical Twilight 5:29 AM CDT 8:53 PM CDT
Moon 5:32 PM CDT (9/16) 3:48 AM CDT (9/16)
Length of Visible Light 13h 17m
Length of Day
12h 23m
Waxing Gibbous, 90% of the Moon is Illuminated
Sep 16
Waxing Gibbous
Sep 19
Full
Sep 26
Last Quarter
Oct 4
New
Oct 11
First Quarter

Hourly Weather History & Observations

Time (CDT) Temp. Dew Point Humidity Pressure Visibility Wind Dir Wind Speed Gust Speed Precip Events Conditions
12:27 AM 62.6 °F 60.8 °F 94% 30.18 in 10.0 mi North 17.3 mph 23.0 mph 0.01 in Rain , Thunderstorm Light Rain
12:53 AM 62.1 °F 60.1 °F 93% 30.14 in 5.0 mi East 13.8 mph 24.2 mph 0.05 in Rain , Thunderstorm Rain
12:59 AM 62.6 °F 60.8 °F 94% 30.16 in 4.0 mi ENE 11.5 mph 24.2 mph 0.01 in Rain Rain
1:18 AM 62.6 °F 60.8 °F 94% 30.18 in 6.0 mi NE 8.1 mph - 0.06 in Rain Light Rain
1:53 AM 61.0 °F 59.0 °F 93% 30.17 in 10.0 mi ENE 10.4 mph - 0.06 in   Overcast
2:53 AM 61.0 °F 57.9 °F 90% 30.18 in 10.0 mi ENE 9.2 mph - N/A   Overcast
3:53 AM 60.1 °F 57.0 °F 90% 30.17 in 10.0 mi NE 9.2 mph - N/A   Overcast
4:53 AM 59.0 °F 57.0 °F 93% 30.16 in 9.0 mi ENE 9.2 mph - 0.03 in Rain Light Rain
5:53 AM 60.1 °F 57.0 °F 90% 30.19 in 9.0 mi ENE 10.4 mph - 0.00 in   Overcast
6:53 AM 59.0 °F 57.0 °F 93% 30.20 in 7.0 mi ENE 10.4 mph - N/A   Overcast
7:53 AM 60.1 °F 57.0 °F 90% 30.22 in 6.0 mi ENE 11.5 mph - N/A   Overcast
8:53 AM 59.0 °F 55.9 °F 90% 30.25 in 4.0 mi ENE 9.2 mph - N/A   Overcast
9:53 AM 60.1 °F 55.9 °F 86% 30.26 in 7.0 mi East 9.2 mph - N/A   Overcast
10:00 AM 60.8 °F 57.2 °F 88% 30.28 in 8.0 mi ENE 6.9 mph - N/A   Overcast
10:28 AM 60.8 °F 55.4 °F 82% 30.28 in 10.0 mi ENE 10.4 mph - N/A   Overcast
10:53 AM 60.1 °F 55.9 °F 86% 30.27 in 10.0 mi ENE 11.5 mph - N/A   Overcast
11:53 AM 61.0 °F 55.0 °F 81% 30.27 in 10.0 mi East 11.5 mph - N/A   Overcast
12:53 PM 60.1 °F 55.0 °F 83% 30.27 in 10.0 mi ENE 12.7 mph - N/A   Overcast
1:53 PM 60.1 °F 55.9 °F 86% 30.25 in 9.0 mi East 11.5 mph - N/A   Overcast
2:53 PM 60.1 °F 55.9 °F 86% 30.23 in 10.0 mi ENE 12.7 mph - N/A   Overcast
3:53 PM 60.1 °F 55.9 °F 86% 30.22 in 10.0 mi East 11.5 mph - N/A   Overcast
4:53 PM 61.0 °F 57.0 °F 87% 30.19 in 9.0 mi East 12.7 mph 21.9 mph N/A   Overcast
5:53 PM 61.0 °F 57.0 °F 87% 30.20 in 9.0 mi East 8.1 mph - N/A   Overcast
6:18 PM 60.8 °F 57.2 °F 88% 30.21 in 10.0 mi East 9.2 mph - N/A   Overcast
6:53 PM 61.0 °F 57.0 °F 87% 30.20 in 10.0 mi East 8.1 mph - N/A   Overcast
7:44 PM 60.8 °F 57.2 °F 88% 30.21 in 6.0 mi ESE 8.1 mph - 0.02 in Rain Light Rain
7:53 PM 61.0 °F 57.0 °F 87% 30.20 in 3.0 mi East 5.8 mph - 0.05 in Rain Rain
8:53 PM 60.1 °F 57.9 °F 93% 30.21 in 4.0 mi East 6.9 mph - 0.07 in Rain Light Rain
9:53 PM 61.0 °F 57.9 °F 90% 30.22 in 6.0 mi Calm Calm - 0.01 in   Overcast
10:53 PM 61.0 °F 57.9 °F 90% 30.21 in 6.0 mi East 5.8 mph - N/A   Overcast
11:11 PM 60.8 °F 59.0 °F 94% 30.22 in 6.0 mi East 4.6 mph - N/A   Overcast
11:20 PM 60.8 °F 59.0 °F 94% 30.22 in 6.0 mi East 4.6 mph - N/A   Overcast
11:53 PM 61.0 °F 59.0 °F 93% 30.21 in 6.0 mi East 5.8 mph - N/A   Overcast